Погода в Саратовском

Россия / Кабардино-Балкарская Республика     43°43′42″N   43°46′47″E
темп.,
°C
ветер,
м/с
пор.,
м/с
влажн.,
%
обл.,
%
осадки,
мм/ч
давл.,
гПа
погр.,
м
29 июля, чт
чт2900:00+15ююз22862 0.0 101711
03:00+14зюз11840 0.0 101611
06:00+16ююз01805 0.0 101613
09:00+22вюв33580 0.0 1015580
12:00+25в45470 0.0 10141411
15:00+27в34411 0.0 10131851
18:00+26ю22560 0.0 101248
21:00+20зюз22700 0.0 101313
30 июля, пт
пт3000:00+18зюз22780 0.0 101312
03:00+17зсз22830 0.0 101219
06:00+17сз22800 0.0 101328
09:00+23ссв22490 0.0 1012516
12:00+27всв22410 0.0 10111017
15:00+29юв22370 0.0 10101317
18:00+27ююз225213 0.0 101037
21:00+22зюз3359100 0.0 101028
31 июля, сб
сб3100:00+20ссв007082 0.0 101011
03:00+19зсз227484 0.1 101011
06:00+20зсз117766 0.3 101012
09:00+25св225365 0.3 1010511
12:00+29св22362 0.0 10101214
15:00+31всв12308 0.0 10091893
18:00+28юз334927 0.0 100944
21:00+23зюз335739 0.0 101036
1 августа, вс
вс100:00+21зюз226325 0.0 101023
03:00+20зюз22656 0.0 101018
06:00+21з22642 0.0 101117
09:00+27ссз11470 0.0 1011452
12:00+32всв11380 0.0 10101343
15:00+33юв22330 0.0 10082046
18:00+30ююз2248100 0.0 100923
21:00+25зюз3458100 0.0 101053
2 августа, пн
пн200:00+22зюз226191 0.0 101013
03:00+22з235588 0.0 100929
06:00+22зсз116190 0.1 101015
09:00+27сз225024 0.1 1010498
12:00+32ссз22395 0.0 10091243
15:00+33ююз213399 0.0 10082070
18:00+29ююз475770 0.0 1009208
21:00+24ююз335731 0.2 100943